Preview of NWS' New Version of Forecast
This preview is not operational and should not be used for support decisions.
Latest weather observations around

Monticello, Monticello Municipal Airport/Ellis Field (KLLQ)

Using English Units (Switch to International System of Units)
Date/ Time (CDT) Wind (mph) Vis. (mi) Weather Sky Cond. Temp (°F) Rel. Humidity Wind Chill (°F) Heat Index (°F) Pressure Precip. (in)
Air Dwpt 6 hour Altimeter (inHg) Sea level (inHg) 1 hr 3 hr 6 hr
Max Min
Apr 25 09:53 SSW 5 10 Clear CLR 70 55     59%     30.05 30.04      
Apr 25 07:53 SW 3 10 Clear CLR 62 56     80%     30.05 30.04      
Apr 25 06:53 Calm 8 Clear CLR 53 50     89%     30.04 30.04      
Apr 25 05:53 Calm 7 Clear CLR 53 51     93%     30.04 30.03      
Apr 25 04:53 Calm 7 Clear CLR 53 51     93%     30.03 30.03      
Apr 25 03:53 Calm 9 Clear CLR 54 52     93%     30.05 30.04      
Apr 25 02:53 Calm 8 Clear CLR 55 53     93%     30.06 30.05      
Apr 25 01:53 Calm 10 Clear CLR 56 54     93%     30.06 30.05      
Apr 25 00:53 SSE 3 10 Clear CLR 59 55     87%     30.05 30.04      
Apr 24 22:53 E 3 10 Clear CLR 59 56     90%     30.04 30.03      
Apr 24 21:53   10 Clear   60 57     90%     30.04 30.03      
Apr 24 20:53 ESE 3 10 Clear CLR 64 57     78%     30.01 30.01      
Apr 24 19:53 E 3 10 Clear CLR 66 57     73%     30 29.99      
Apr 24 18:53 E 3 10 Clear CLR 73 55     53%   73 29.98 29.98      
Apr 24 17:53 NE 7 10 Clear CLR 75 54     48%   74 29.99 29.98      
Apr 24 16:53 NNW 5 10 Clear CLR 75 55     50%   75 29.98 29.98      
Apr 24 15:53 3 10 Partly Cloudy SCT040 75 55     50%   75 29.99 29.98      
Apr 24 14:53 ENE 7 10 Mostly Cloudy SCT040 BKN047 72 54     53%   71 30 29.99      
Apr 24 13:53 7 10 Partly Cloudy SCT044 74 52     46%   73 30 30      
Apr 24 12:53 NNW 9 10 Partly Cloudy SCT037 72 54     53%   71 30.02 30.02      
Apr 24 12:18 3 10 Mostly Cloudy FEW028 BKN034 70 55     59%     30.03        
Apr 24 11:43 NNW 6 10 Partly Cloudy SCT024 66 54     65%     30.04        
Apr 24 10:53 NNW 7 10 Cloudy OVC020 66 54     65%     30.05 30.04      
Apr 24 09:53 5 10 Cloudy OVC019 62 54     75%     30.05 30.04      
Apr 24 09:41 5 10 Mostly Cloudy BKN019 63 54     72%     30.05        
Apr 24 08:53 7 10 Clear CLR 62 54     75%     30.04 30.03      
Apr 24 07:53 NW 5 10 Partly Cloudy SCT017 56 53     90%     30.03 30.02      
Apr 24 06:53 WNW 3 6 Fog/Mist CLR 53 52     96%     30.02 30.01      
Apr 24 05:53 WNW 3 8 Clear CLR 52 51     97%     29.99 29.98      
Apr 24 04:53 W 3 10 Clear CLR 53 51     93%     29.97 29.97      
Apr 24 03:53 WNW 3 10 Clear CLR 54 52     93%     29.96 29.96      
Apr 24 00:53 W 3 8 Clear CLR 54 53     97%     29.96 29.96     0
Notice The following observation data may not be complete
Apr 24 00:07   10 Partly Cloudy SCT023 SCT032          %              
Apr 23 23:53 Calm 10 Mostly Cloudy BKN023 BKN060 59 56     90%     29.96 29.95      
Apr 23 22:53 Calm 10 Cloudy BKN055 OVC080 60 57     90%     29.95 29.95      
Apr 23 21:53   10 Cloudy FEW048 SCT060 OVC080 62 57     84%     29.94 29.94   0  
Apr 23 20:53 SW 3 10 Cloudy FEW042 BKN055 OVC075 62 57     84%     29.93 29.93 0    
Apr 23 19:53 Calm 10 Cloudy BKN046 OVC055 62 57     84%     29.92 29.92      
Apr 23 18:53 Calm 10 Cloudy BKN042 OVC070 64 57     78%     29.92 29.91      
Apr 23 17:53 WSW 3 10 Cloudy FEW029 OVC044 64 56     75%     29.91 29.91      
Apr 23 16:53 WNW 6 10 Cloudy OVC041 63 54     72%     29.91 29.9      
Apr 23 15:53 W 7 10 Cloudy OVC032 63 54     72%     29.91 29.91      
Apr 23 15:34 W 7 10 Cloudy FEW022 OVC030 63 53     70%     29.91        
Apr 23 14:53 W 13 10 Cloudy BKN021 BKN028 OVC041 64 54     70%     29.92 29.92      
Apr 23 14:45 W 9 10 Cloudy SCT019 OVC041 65 54     68%     29.92        
Apr 23 13:53 WNW 9 10 Cloudy SCT017 OVC024 62 54     75%     29.93 29.93      
Apr 23 12:53 WNW 11 10 Cloudy BKN022 OVC031 62 52     70%     29.94 29.93      
Apr 23 11:53 W 10 10 Cloudy OVC025 62 52     70%     29.95 29.94      
Apr 23 10:53 W 8 10 Mostly Cloudy BKN021 63 53     70%     29.94 29.93      
Apr 23 10:23 7 10 Cloudy BKN015 OVC036 61 52     72%     29.95        
Apr 23 09:53 W 8 10 Cloudy BKN013 OVC035 59 52     78%     29.95 29.94      
Apr 23 08:53 W 8 10 Cloudy OVC011 57 52     83%     29.95 29.94      
Apr 23 08:01 W 11 10 Mostly Cloudy BKN011 56 51     84%     29.94        
Apr 23 07:53 W 9 10 Partly Cloudy SCT011 55 51     86%     29.94 29.93      
Apr 23 06:53 W 7 10 Clear CLR 53 50     89%     29.92 29.91      
Apr 23 05:53 W 7 10 Mostly Cloudy FEW014 BKN060 53 50     89%     29.9 29.9      
Apr 23 04:53 W 6 10 Partly Cloudy SCT050 53 50     89%     29.89 29.88      
Apr 23 04:21 W 6 10 Cloudy SCT013 OVC050 54 50     86%     29.89        
Apr 23 03:53 W 8 10 Cloudy OVC013 54 50     86%     29.9 29.89      
Apr 23 03:16 WNW 7 10 Cloudy OVC014 54 50     86%     29.89        
Apr 23 02:53 W 7 10 Cloudy OVC015 55 50     83%     29.89 29.89      
Apr 23 01:53 W 7 10 Cloudy OVC016 55 50     83%     29.9 29.9      
Apr 23 00:53 W 6 10 Clear CLR 54 50     86%     29.91 29.9      
Apr 22 23:53 W 9 10 Clear CLR 56 50     80%     29.91 29.91      
Apr 22 21:53 W 8 10 Cloudy SCT026 OVC050 59 51     75%     29.92 29.91      
Apr 22 21:50 W 8 10 Cloudy SCT026 OVC050 59 52     77%     29.92        
Apr 22 21:34 W 11 10 Cloudy BKN026 OVC034 60 52     75%     29.91        
Apr 22 20:53 W 14 10 Mostly Cloudy SCT032 BKN041 BKN050 60 52     75%     29.9 29.9      
Apr 22 19:53 W 9 10 Partly Cloudy FEW021 SCT080 61 53     75%     29.88 29.87      
Apr 22 18:53 W 9 10 Cloudy FEW025 SCT031 OVC075 65 55     70%     29.86 29.85      
Apr 22 17:53 W 10 10 Mostly Cloudy BKN075 68 56     65%     29.84 29.83      
Apr 22 16:53 WNW 9 10 Partly Cloudy SCT029 70 57     63%     29.83 29.83      
Apr 22 15:53 W 8 10 Mostly Cloudy FEW027 BKN070 BKN085 67 57     71%     29.85 29.84      
Apr 22 14:53 W 5 10 Cloudy SCT017 BKN045 OVC065 67 59     76%     29.88 29.87      
Apr 22 14:48 WNW 8 10 Cloudy SCT017 BKN025 OVC060 66 57     73%     29.88        
Apr 22 14:39 W 9 10 Cloudy SCT016 BKN046 OVC060 66 58     75%     29.89        
Apr 22 14:30 WNW 9 10 Cloudy FEW016 BKN026 OVC055 66 58     75%     29.89        
Apr 22 14:20 W 6 10 Cloudy FEW016 BKN045 OVC050 66 59     78%     29.89        
Apr 22 13:53 6 10 Cloudy SCT016 BKN026 OVC033 65 59     81%     29.89 29.89      
Apr 22 13:42 W 6 10 Cloudy SCT016 BKN030 OVC037 66 59     78%     29.89        
Apr 22 13:23 WNW 6 10 Cloudy BKN016 OVC040 66 59     78%     29.89        
Apr 22 12:53 W 6 10 Cloudy BKN013 OVC042 66 60     81%     29.89 29.89     0
Apr 22 11:53 W 6 10 Cloudy FEW006 OVC013 63 59     87%     29.91 29.91      
Apr 22 11:27 W 6 7 Cloudy OVC006 63 59     87%     29.92        
Apr 22 10:53 W 5 10 Cloudy BKN007 OVC013 63 59     87%     29.92 29.92      
Jun 12 05:48 SSE 7 10 Cloudy OVC009 75 73     94%   77 30.03        
Jun 12 03:11 SE 3 10 Cloudy OVC009 74 71     91%   75 30        
Jun 11 22:53 SSE 6 10 Clear CLR 76 70     82%   77 30.02 30.01      
Jun 11 14:53 5 10 Mostly Clear FEW039 88 69     54%   92 30.02 30.01      
Jun 11 01:53 SSE 5 10 Clear CLR 70 64     81%     29.99        
Jun 08 02:53 3 10 Clear CLR 63 56     78%     29.95 29.94      
Jun 07 21:53 Calm 10 Clear CLR 67 59     76%     29.95 29.94      
Jun 07 20:53 NNW 3 10 Clear CLR 68 60     76%     29.94 29.93      
Jun 07 10:53 NE 13 10 Clear CLR 80 56     44%   80 29.95 29.94      
Jun 06 12:26 ENE 18 10 Partly Cloudy FEW019 SCT025 82 72     72%   87 29.79